Regional Weather Roundup
Issued by NWS

Home | Current Version | Previous Version | Graphics & Text | Print | Product List | Glossary On
Versions: 1 2 3 4 5 6 7 8 9 10 11 12 13 14 15 16 17 18 19 20 21 22 23 24 25 26 27 28 29 30 31 32 33 34 35 36 37 38 39 40 41 42 43 44 45 46 47 48 49 50
000
ASUS45 KABQ 161110
RWRNM
NEW MEXICO REGIONAL WEATHER ROUNDUP
NATIONAL WEATHER SERVICE ALBUQUERQUE NM
400 AM MST TUE JAN 16 2018

NOTE: "FAIR" MEANS FEW OR NO CLOUDS BELOW 12,000 FEET AGL WITH NO
       SIGNIFICANT WEATHER OR OBSTRUCTIONS TO VISION.

      THIS PRODUCT IS RELEASED AS TWO VERSIONS.  ONE VERSION NEAR
      THE TOP OF THE HOUR CONTAINING PRELIMINARY DATA FROM ALBUQUERQUE
      AND OTHER STATIONS.  A FINAL VERSION WITH ADDITIONAL DATA IS
      ISSUED ABOUT 10 MINUTES AFTER THE HOUR.

NMZ501-503-504-510>518-161200-
NORTHWEST PLATEAU/NORTHCENTRAL MOUNTAINS

CITY           SKY/WX    TMP DP  RH WIND       PRES   REMARKS
FARMINGTON     FAIR      24  20  84 E8        30.31R WCI  15
LOS ALAMOS     CLOUDY    17  17 100 S8        30.40S WCI   6
SANTA FE       CLOUDY    20  15  81 S9        30.43F WCI   9
TAOS           CLOUDY    20  14  77 W7        30.43R WCI  11
ANGEL FIRE     CLOUDY    15  10  78 CALM      30.35S

$$
NMZ402-403-502-505>509-161200-
WESTCENTRAL MOUNTAINS/SOUTHWEST MOUNTAINS

CITY           SKY/WX    TMP DP  RH WIND       PRES   REMARKS
GALLUP         FAIR      24  17  74 NE9       30.29F WCI  14
GRANTS         FAIR      22  19  86 S10       30.37S WCI  11
SILVER CITY    FAIR      22  16  78 CALM      30.36R

$$
NMZ407-409-411-412-161200-
SOUTHERN DESERTS

CITY           SKY/WX    TMP DP  RH WIND       PRES   REMARKS
DEMING         FAIR      28  17  63 E13       30.40R WCI  17
LAS CRUCES     FAIR      30  14  51 S8        30.40S WCI  23
HOLLOMAN AFB   FAIR      28  15  59 CALM      30.47R
ALAMOGORDO     FAIR      27  18  69 N7        30.45R WCI  19
T OR C         FAIR      28  15  58 NE14      30.40S WCI  17

$$
NMZ519>523-161200-
CENTRAL VALLEYS/CENTRAL HIGHLANDS

CITY           SKY/WX    TMP DP  RH WIND       PRES   REMARKS
ALBUQUERQUE    MOCLDY    25  14  63 E20       30.43S WCI  11
MORIARTY ARPT  CLOUDY    20  13  76 S5        30.47S WCI  13
CLINES CORNERS CLOUDY    15  12  88 E7        30.42R FOG     WCI   5
BELEN          FAIR      22  15  75 CALM      30.44R
SOCORRO        FAIR      25  13  61 W5        30.44S WCI  19

$$
NMZ524>526-539-540-161200-
SOUTHCENTRAL MOUNTAINS

CITY           SKY/WX    TMP DP  RH WIND       PRES   REMARKS
RUIDOSO        CLOUDY    14   7  73 SE5       30.45R WCI   6

$$
NMZ527>531-161200-
NORTHEAST HIGHLANDS/NORTHEAST PLAINS

CITY           SKY/WX    TMP DP  RH WIND       PRES   REMARKS
LAS VEGAS      CLOUDY    15  13  91 S8        30.41F WCI   4
RATON          CLOUDY    15  11  83 CALM      30.43S
CLAYTON        FAIR       0  -6  76 W8        30.52F WCI -14

$$
NMZ532>537-161200-
EASTCENTRAL PLAINS

CITY           SKY/WX    TMP DP  RH WIND       PRES   REMARKS
SANTA ROSA     CLOUDY    21  11  65 CALM      30.53F
TUCUMCARI      CLOUDY    21   5  50 E10       30.56F WCI  10
CANNON AFB     CLOUDY    20   5  52 NE8       30.57S WCI  10
CLOVIS AIRPORT CLOUDY    18   4  54 NE10      30.58R WCI   6

$$
NMZ028-029-538-161200-
SOUTHEAST PLAINS

CITY           SKY/WX    TMP DP  RH WIND       PRES   REMARKS
ROSWELL        CLOUDY    27   5  39 E5        30.59S WCI  22
ARTESIA        CLOUDY    27   3  36 E5        30.61S WCI  21
CARLSBAD       CLOUDY    26   5  40 NE9       30.62R WCI  17
HOBBS          CLOUDY    19   0  42 NE8       30.59S WCI   9


$$




USA.gov is the U.S. government's official web portal to all federal, state and local government web resources and services.